Regional Weather Roundup
Issued by NWS

Home | Current Version | Previous Version | Graphics & Text | Print | Product List | Glossary On
Versions: 1 2 3 4 5 6 7 8 9 10 11 12 13 14 15 16 17 18 19 20 21 22 23 24 25 26 27 28 29 30 31 32 33 34 35 36 37 38 39 40 41 42 43 44 45 46 47 48 49 50
000
ASUS43 KLSX 261959
RWRMO

WEATHER SUMMARY FOR MISSOURI
NATIONAL WEATHER SERVICE SPRINGFIELD MO
200 PM CST WED NOV 26 2014

NOTE: "FAIR" INDICATES FEW OR NO CLOUDS BELOW 12,000 FEET WITH NO
       SIGNIFICANT WEATHER AND/OR OBSTRUCTIONS TO VISIBILITY.
       CURRENT SKY AND/OR WEATHER CONDITIONS ARE NOT AVAILABLE FOR
       CHILLICOTHE AND FARMINGTON.

MOZ001>031-035>038-043-044-053-054-262100-
...NORTHERN AND WESTERN MISSOURI...

CITY           SKY/WX    TMP DP  RH WIND       PRES   REMARKS
KANSAS CTY INT CLOUDY    36  30  79 NW17G30   30.05R WCI  26
KANSAS C DTWN  LGT RAIN  40  30  67 NW18G25   30.05R
LEE`S SUMMIT   CLOUDY    40  30  67 NW18G30   30.03R
ST JOSEPH      CLOUDY    36  29  75 NW28G33   30.06R WCI  23
CHILLICOTHE      N/A     38  32  79 NW13G20   29.98R WCI  30
KIRKSVILLE     CLOUDY    34  34 100 CALM      29.92R FOG

$$
MOZ066>068-077>081-088>096-101>105-262100-
...SOUTHWEST MISSOURI...

CITY           SKY/WX    TMP DP  RH WIND       PRES   REMARKS
SPRINGFIELD    CLOUDY    44  28  53 NW16G24   30.02R
JOPLIN         CLOUDY    47  24  40 W18G31    30.08R

$$
MOZ032>034-039>042-045>050-055>058-069>072-262100-
...CENTRAL MISSOURI...

CITY           SKY/WX    TMP DP  RH WIND       PRES   REMARKS
COLUMBIA       CLOUDY    40  36  86 W9        29.95R
JEFFERSON CITY CLOUDY    42  37  82 W9        29.96R
ROLLA          CLOUDY    36  34  92 SW5       29.94S
SEDALIA        CLOUDY    42  31  64 NW17G28   29.99R
OSAGE BEACH    CLOUDY    43  36  75 W6        29.97R

$$
MOZ051-052-059>065-262100-
...EAST CENTRAL MISSOURI...

CITY           SKY/WX    TMP DP  RH WIND       PRES   REMARKS
ST LOUIS INTL  NOT AVBL
SPIRIT OF STL  LGT SNOW  33  31  92 SE3       29.97S VSB 3/4
ST CHARLES     HVY SNOW  32  32 100 E6        29.98S VSB 1/4 WCI  26

$$
MOZ072>076-082>087-097>100-106>115-262100-
...SOUTH CENTRAL AND SOUTHEAST MISSOURI...

CITY           SKY/WX    TMP DP  RH WIND       PRES   REMARKS
CAPE GIRARDEAU LGT RAIN  39  34  82 S14       29.97F
FARMINGTON     CLOUDY    34  32  93 SE6       29.96R VSB 1   WCI  29
POPLAR BLUFF   LGT RAIN  39  34  82 SW6       29.97S
WEST PLAINS    PTSUNNY   44  34  67 NW10G18   29.97R

$$



USA.gov is the U.S. government's official web portal to all federal, state and local government web resources and services.